RPLIVTSG

Guest
Details From RPLI - Laoag Intl
To VTSG - Krabi
Flight Number -
Tags Generated
Created
Modified
Stats Distance 1,396 nm / 2,585 km
Max Altitude 0 ft / 0 m
Waypoints 3
Social Downloads 0
Likes 0
Share VATSIM

Download

Looking for another format? Having issues loading an existing format? Contact us
Advertisement - Login to hide

Notes

Generated

Route

RPLI KBI VTSG

ID Type Via Altitude Latitude Longitude Leg Dist Tot Dist Heading (true) Name
O RPLI APT - 0 ft / 0 m 18.16364˚ 120.52987˚ - 0 nm - -
KBI VOR - 0 ft / 0 m 8.10755˚ 98.97752˚ 1395 nm 1395 nm 247° / 242° KRABI VOR-DME
O VTSG APT - 0 ft / 0 m 8.10647˚ 98.98012˚ 0 nm 1395 nm 113° / 113° -

Altitude Profile

Advertisement - Login to hide

Weather


0- 5 10 15 20 25 30 35+ Temperature / ° C

Clouds and Precipitation
Forecast for 2018-05-25 18:00 UTC. Updated 6 hours ago

Ground ~20,000 ft ~40,000 ft Winds

RPLI

Details ICAO RPLI (LAO)
Name LAOAG INTL
Region Philippines
Timezone Asia/Manila (UTC+8.0)
Stats Elevation 25 ft / 8 m (AMSL)
Location 18.176144° 120.531104°
Runways 1
Magnetic Variation 2.906° W

METAR

RPLI 252200Z 09002KT 9999 FEW019 25/23 Q1009 NOSIG RMK A2980

Decode

TAF

TAF RPLI 251700Z 2518/2618 29007KT 9999 FEW019 TEMPO 2518/2524 12006KT SCT019

Decode

Departure Runways

ID Width Length Bearing (true) Bearing (mag) Surface Threshold Offset Overrun Length
01 148 ft / 45 m 9,165 ft / 2,793 m 5.37° 8.28° Concrete 1,181 ft / 360 m 1,200 ft / 366 m
19 148 ft / 45 m 9,165 ft / 2,793 m 185.37° 188.28° Concrete 0 ft / 0 m 0 ft / 0 m

VTSG

Details ICAO VTSG (KBV)
Name Krabi
Region Thailand
Timezone Asia/Bangkok (UTC+7.0)
Stats Elevation 82 ft / 25 m (AMSL)
Location 8.095977° 98.988763°
Runways 1
Magnetic Variation 0.379° W

METAR

VTSG 252200Z 00000KT 7000 SCT020 25/25 Q1008

Decode

TAF

TAF VTSG 251700Z 2518/2618 VRB02KT 8000 SCT020 TEMPO 2518/2522 VRB10G20KT 5000 TSRA FEW018CB SCT020 BKN100 BECMG 2522/2524 3000 BR BECMG 2601/2603 08006KT 9999 NSW

Decode

Destination Runways

ID Width Length Bearing (true) Bearing (mag) Surface Threshold Offset Overrun Length
14 148 ft / 45 m 9,880 ft / 3,012 m 140.79° 141.17° Asphalt 0 ft / 0 m 197 ft / 60 m
32 148 ft / 45 m 9,880 ft / 3,012 m 320.80° 321.18° Asphalt 0 ft / 0 m 197 ft / 60 m

Approach Navaids

Runway Type Ident Frequency Range Bearing (true) Bearing (mag) Slope Elevation
32 Localiser IKBI 110.10 MHz 18 nm / 33 km 320.80° 321.17° - 71 ft / 22 m (AMSL)
32 Glidescope IKBI 110.10 MHz 10 nm / 19 km 320.80° 321.17° 3.00° 77 ft / 23 m (AMSL)
32 DME IKBI 110.10 MHz 18 nm / 33 km - - - 71 ft / 22 m (AMSL)